Granite Falls, MN

7:28 AM CST on December 13, 2019 (GMT -0600)
Granite Falls

Weather History for KGDB - October, 2019

Change the Weather History Date:

Wednesday, October 16, 2019

  Actual Average (WUND) Record (WUND)
Temperature  
Mean Temperature 44 °F -  
Max Temperature 50 °F - - (-1)
Min Temperature 38 °F - - (-1)
Degree Days  
Heating Degree Days 20    
Moisture  
Dew Point 35 °F    
Average Humidity 76    
Maximum Humidity 87    
Minimum Humidity 61    
Precipitation  
Precipitation 0.00 in - - ()
Sea Level Pressure  
Sea Level Pressure 30.14 in    
Wind  
Wind Speed 8 mph (West)    
Max Wind Speed 13 mph    
Max Gust Speed 20 mph    
Visibility 10 miles    
Events      
Averages and records for this station are not official NWS values.
T = Trace of Precipitation, MM = Missing Value Source: NWS Daily Summary

Daily Weather History Graph

Daily Weather History Graph

Search for Another Location

Airport or City:

Astronomy

Oct. 16, 2019 Rise Set
Actual Time 7:38 AM CDT 6:36 PM CDT
Civil Twilight 7:09 AM CDT 7:05 PM CDT
Nautical Twilight 6:35 AM CDT 7:39 PM CDT
Astronomical Twilight 6:01 AM CDT 8:13 PM CDT
Moon 8:24 PM CDT (10/16) 10:15 AM CDT (10/16)
Length of Visible Light 11h 56m
Length of Day
10h 57m
Waning Gibbous, 92% of the Moon is Illuminated
Oct 16
Waning Gibbous
Oct 21
Last Quarter
Oct 27
New
Nov 4
First Quarter
Nov 12
Full

Hourly Weather History & Observations

Time (CDT) Temp. Windchill Dew Point Humidity Pressure Visibility Wind Dir Wind Speed Gust Speed Precip Events Conditions
12:19 AM 41.9 °F 35.0 °F 36.0 °F 79% 30.17 in 10.0 mi NW 12.7 mph 18.4 mph N/A   Overcast
12:36 AM 41.9 °F 35.0 °F 35.8 °F 79% 30.17 in 10.0 mi NW 12.7 mph 19.6 mph N/A   Overcast
12:56 AM 41.5 °F 36.4 °F 35.6 °F 79% 30.17 in 10.0 mi NW 8.1 mph - N/A   Overcast
1:15 AM 41.0 °F 35.2 °F 34.9 °F 79% 30.17 in 10.0 mi NW 9.2 mph 17.3 mph N/A   Overcast
1:35 AM 41.0 °F 35.2 °F 35.2 °F 80% 30.17 in 10.0 mi NW 9.2 mph 17.3 mph N/A   Overcast
1:39 AM 41.0 °F 34.3 °F 35.2 °F 80% 30.17 in 10.0 mi NW 11.5 mph 17.3 mph N/A   Overcast
1:58 AM 41.0 °F 34.7 °F 34.2 °F 77% 30.17 in 10.0 mi NW 10.4 mph 18.4 mph N/A   Overcast
2:15 AM 41.0 °F 34.3 °F 34.5 °F 78% 30.18 in 10.0 mi NW 11.5 mph - N/A   Overcast
2:35 AM 40.5 °F 33.2 °F 33.8 °F 77% 30.18 in 10.0 mi NNW 12.7 mph 19.6 mph N/A   Overcast
2:36 AM 40.5 °F 33.2 °F 33.8 °F 77% 30.18 in 10.0 mi NNW 12.7 mph 19.6 mph N/A   Overcast
2:55 AM 40.3 °F 34.4 °F 34.0 °F 78% 30.19 in 10.0 mi NW 9.2 mph - N/A   Overcast
3:18 AM 40.1 °F 34.7 °F 33.8 °F 78% 30.19 in 7.0 mi NW 8.1 mph - N/A   Overcast
3:36 AM 40.1 °F 33.6 °F 34.2 °F 79% 30.19 in 10.0 mi WNW 10.4 mph - N/A   Overcast
3:55 AM 40.1 °F 35.3 °F 34.7 °F 81% 30.19 in 7.0 mi NW 6.9 mph - N/A   Overcast
3:56 AM 40.1 °F 34.1 °F 34.7 °F 81% 30.19 in 7.0 mi NW 9.2 mph - N/A   Overcast
4:15 AM 40.1 °F 34.1 °F 34.3 °F 80% 30.19 in 10.0 mi WNW 9.2 mph 16.1 mph N/A   Overcast
4:16 AM 40.1 °F 34.1 °F 34.3 °F 80% 30.19 in 10.0 mi WNW 9.2 mph 16.1 mph N/A   Overcast
4:35 AM 40.1 °F 35.3 °F 34.7 °F 81% 30.18 in 10.0 mi NW 6.9 mph - N/A   Overcast
4:40 AM 40.1 °F 34.1 °F 34.7 °F 81% 30.18 in 10.0 mi NW 9.2 mph - N/A   Overcast
5:15 AM 40.1 °F 34.1 °F 34.3 °F 80% 30.18 in 10.0 mi NW 9.2 mph - N/A   Overcast
5:35 AM 40.1 °F 35.3 °F 34.2 °F 79% 30.18 in 10.0 mi WNW 6.9 mph - N/A   Overcast
5:36 AM 40.1 °F 35.3 °F 34.2 °F 79% 30.18 in 10.0 mi WNW 6.9 mph - N/A   Overcast
5:55 AM 40.1 °F 36.1 °F 34.3 °F 80% 30.18 in 10.0 mi NW 5.8 mph - N/A   Overcast
5:56 AM 40.1 °F 36.1 °F 34.3 °F 80% 30.18 in 10.0 mi WNW 5.8 mph - N/A   Overcast
6:18 AM 40.1 °F 35.3 °F 34.7 °F 81% 30.18 in 10.0 mi WNW 6.9 mph - N/A   Overcast
6:37 AM 40.1 °F 36.1 °F 34.7 °F 81% 30.18 in 10.0 mi West 5.8 mph - N/A   Overcast
6:56 AM 40.1 °F 35.3 °F 34.7 °F 81% 30.18 in 7.0 mi WNW 6.9 mph - N/A   Overcast
7:15 AM 40.1 °F 35.3 °F 34.7 °F 81% 30.18 in 10.0 mi WNW 6.9 mph - N/A   Overcast
7:16 AM 40.1 °F 36.1 °F 34.7 °F 81% 30.18 in 10.0 mi WNW 5.8 mph - N/A   Overcast
7:35 AM 40.1 °F 35.3 °F 34.7 °F 81% 30.18 in 10.0 mi WNW 6.9 mph - N/A   Overcast
7:39 AM 40.1 °F 36.1 °F 34.7 °F 81% 30.18 in 10.0 mi West 5.8 mph - N/A   Overcast
7:57 AM 40.1 °F 36.1 °F 34.7 °F 81% 30.18 in 7.0 mi West 5.8 mph - N/A   Overcast
8:16 AM 40.1 °F 36.9 °F 34.7 °F 81% 30.17 in 10.0 mi WNW 4.6 mph - N/A   Overcast
8:35 AM 40.1 °F 36.1 °F 34.7 °F 81% 30.17 in 10.0 mi WNW 5.8 mph - N/A   Overcast
8:36 AM 40.1 °F 36.1 °F 34.7 °F 81% 30.17 in 10.0 mi WNW 5.8 mph - N/A   Overcast
8:55 AM 40.5 °F 34.6 °F 34.7 °F 80% 30.18 in 7.0 mi West 9.2 mph - N/A   Overcast
9:18 AM 40.6 °F 35.4 °F 34.7 °F 79% 30.19 in 10.0 mi WNW 8.1 mph - N/A   Overcast
9:36 AM 40.5 °F 34.1 °F 34.7 °F 80% 30.19 in 10.0 mi West 10.4 mph - N/A   Overcast
9:55 AM 40.8 °F 35.0 °F 34.9 °F 79% 30.20 in 10.0 mi West 9.2 mph - N/A   Overcast
9:56 AM 40.8 °F 35.0 °F 34.9 °F 79% 30.20 in 10.0 mi West 9.2 mph - N/A   Overcast
10:15 AM 41.4 °F 35.7 °F 34.9 °F 78% 30.20 in 7.0 mi WNW 9.2 mph - N/A   Overcast
10:16 AM 41.5 °F 35.9 °F 34.9 °F 77% 30.20 in 7.0 mi WNW 9.2 mph - N/A   Overcast
10:35 AM 41.9 °F 36.3 °F 34.5 °F 75% 30.19 in 7.0 mi NW 9.2 mph - N/A   Overcast
10:39 AM 41.9 °F 37.5 °F 34.3 °F 75% 30.19 in 10.0 mi NNW 6.9 mph - N/A   Overcast
10:58 AM 42.4 °F 38.1 °F 34.7 °F 74% 30.20 in 7.0 mi WNW 6.9 mph - N/A   Overcast
11:15 AM 42.3 °F 36.8 °F 34.7 °F 75% 30.19 in 10.0 mi NW 9.2 mph - N/A   Overcast
11:35 AM 43.0 °F 37.7 °F 35.2 °F 74% 30.19 in 10.0 mi WNW 9.2 mph 16.1 mph N/A   Overcast
11:36 AM 43.2 °F 38.4 °F 35.2 °F 74% 30.19 in 10.0 mi WNW 8.1 mph 16.1 mph N/A   Overcast
11:55 AM 43.0 °F 37.7 °F 35.1 °F 74% 30.18 in 10.0 mi WNW 9.2 mph - N/A   Overcast
12:18 PM 43.7 °F 39.7 °F 34.9 °F 71% 30.17 in 10.0 mi West 6.9 mph - N/A   Overcast
12:37 PM 45.0 °F 42.6 °F 35.4 °F 69% 30.17 in 10.0 mi WSW 4.6 mph - N/A   Overcast
12:56 PM 45.0 °F 40.1 °F 35.4 °F 69% 30.17 in 10.0 mi WSW 9.2 mph - N/A   Overcast
1:15 PM 45.3 °F 43.0 °F 35.2 °F 68% 30.16 in 10.0 mi West 4.6 mph - N/A   Overcast
1:16 PM 45.5 °F 44.2 °F 35.2 °F 67% 30.16 in 10.0 mi West 3.5 mph - N/A   Overcast
1:35 PM 46.8 °F - 36.1 °F 67% 30.15 in 7.0 mi WNW 8.1 mph - N/A   Overcast
1:57 PM 46.0 °F 42.5 °F 35.1 °F 66% 30.15 in 10.0 mi West 6.9 mph - N/A   Mostly Cloudy
2:15 PM 46.9 °F - 36.0 °F 66% 30.13 in 10.0 mi WSW 5.8 mph - N/A   Mostly Cloudy
2:35 PM 47.3 °F - 35.6 °F 64% 30.13 in 10.0 mi West 3.5 mph - N/A   Mostly Cloudy
2:55 PM 49.1 °F - 36.1 °F 61% 30.11 in 10.0 mi WSW 5.8 mph - N/A   Mostly Cloudy
2:56 PM 48.9 °F - 35.8 °F 61% 30.11 in 10.0 mi WSW 4.6 mph - N/A   Mostly Cloudy
3:19 PM 48.4 °F - 35.8 °F 62% 30.10 in 10.0 mi WSW 4.6 mph - N/A   Mostly Cloudy
3:36 PM 48.4 °F - 35.4 °F 61% 30.10 in 10.0 mi SW 4.6 mph - N/A   Scattered Clouds
3:56 PM 49.1 °F - 36.0 °F 61% 30.09 in 10.0 mi WSW 3.5 mph - N/A   Clear
4:15 PM 48.7 °F - 36.0 °F 61% 30.08 in 10.0 mi SW 4.6 mph - N/A   Clear
4:35 PM 47.3 °F - 35.4 °F 63% 30.08 in 10.0 mi Calm Calm - N/A   Clear
4:39 PM 47.3 °F - 35.8 °F 64% 30.08 in 10.0 mi WSW 3.5 mph - N/A   Clear
4:57 PM 47.3 °F - 36.5 °F 66% 30.08 in 10.0 mi SW 4.6 mph - N/A   Clear
5:16 PM 47.3 °F - 37.0 °F 68% 30.07 in 10.0 mi South 3.5 mph - N/A   Clear
5:35 PM 46.4 °F 42.9 °F 36.3 °F 68% 30.08 in 10.0 mi SW 6.9 mph - N/A   Clear
5:36 PM 46.2 °F 42.7 °F 36.5 °F 69% 30.08 in 10.0 mi SW 6.9 mph - N/A   Clear
5:55 PM 46.4 °F 44.3 °F 36.5 °F 68% 30.07 in 10.0 mi SW 4.6 mph - N/A   Scattered Clouds
6:17 PM 45.5 °F 44.2 °F 36.5 °F 71% 30.06 in 10.0 mi SSW 3.5 mph - N/A   Mostly Cloudy
6:35 PM 45.0 °F 43.5 °F 36.7 °F 73% 30.05 in 10.0 mi SSW 3.5 mph - N/A   Mostly Cloudy
6:55 PM 44.1 °F - 36.3 °F 74% 30.05 in 10.0 mi Calm Calm - N/A   Scattered Clouds
7:15 PM 43.2 °F - 36.7 °F 78% 30.06 in 10.0 mi Calm Calm - N/A   Scattered Clouds
7:16 PM 43.2 °F - 36.5 °F 77% 30.06 in 10.0 mi Calm Calm - N/A   Scattered Clouds
7:39 PM 42.8 °F 40.1 °F 36.1 °F 77% 30.05 in 10.0 mi South 4.6 mph - N/A   Scattered Clouds
8:16 PM 42.8 °F 41.1 °F 36.3 °F 78% 30.05 in 10.0 mi SSE 3.5 mph - N/A   Mostly Cloudy
8:35 PM 41.9 °F 40.0 °F 36.7 °F 82% 30.05 in 10.0 mi SSE 3.5 mph - N/A   Mostly Cloudy
8:55 PM 41.9 °F 40.0 °F 36.5 °F 81% 30.05 in 10.0 mi SE 3.5 mph - N/A   Scattered Clouds
8:59 PM 41.9 °F 39.0 °F 36.5 °F 81% 30.05 in 10.0 mi SSE 4.6 mph - N/A   Scattered Clouds
9:17 PM 41.0 °F 38.0 °F 36.9 °F 85% 30.05 in 10.0 mi SSE 4.6 mph - N/A   Mostly Cloudy
9:36 PM 41.9 °F 39.0 °F 36.5 °F 81% 30.05 in 10.0 mi SE 4.6 mph - N/A   Scattered Clouds
9:55 PM 42.3 °F - 36.5 °F 80% 30.06 in 10.0 mi Calm Calm - N/A   Clear
9:56 PM 42.3 °F 40.5 °F 36.3 °F 79% 30.06 in 10.0 mi SE 3.5 mph - N/A   Clear
10:15 PM 42.3 °F 40.5 °F 36.1 °F 79% 30.05 in 10.0 mi ESE 3.5 mph - N/A   Scattered Clouds
10:20 PM 42.1 °F 39.2 °F 36.0 °F 79% 30.05 in 10.0 mi SE 4.6 mph - N/A   Scattered Clouds
10:37 PM 41.0 °F 38.0 °F 35.8 °F 82% 30.06 in 10.0 mi ESE 4.6 mph - N/A   Clear
10:55 PM 41.7 °F 38.8 °F 35.8 °F 79% 30.05 in 10.0 mi ESE 4.6 mph - N/A   Clear
11:15 PM 40.5 °F 36.5 °F 35.6 °F 83% 30.04 in 10.0 mi ESE 5.8 mph - N/A   Clear
11:35 PM 40.5 °F 38.4 °F 35.6 °F 83% 30.04 in 10.0 mi ESE 3.5 mph - N/A   Clear
11:36 PM 40.3 °F 37.1 °F 35.6 °F 83% 30.04 in 10.0 mi ESE 4.6 mph - N/A   Clear
11:59 PM 38.3 °F 34.8 °F 34.9 °F 87% 30.04 in 10.0 mi East 4.6 mph - N/A   Clear